TimeGMT,TemperatureF,Dew PointF,Humidity,Sea Level PressureIn,VisibilityMPH,Wind Direction,Wind SpeedMPH,Gust SpeedMPH,PrecipitationIn,Events,Conditions,WindDirDegrees,DateUTC
12:20 AM,33.8,32.0,93,29.83,-9999.0,NNE,3.5,-,N/A,,Clear,20,2012-11-24 00:20:00
12:50 AM,33.8,33.8,100,29.86,6.2,Variable,2.3,-,N/A,,Scattered Clouds,0,2012-11-24 00:50:00
1:20 AM,32.0,32.0,100,29.86,3.7,NE,5.8,-,N/A,,Unknown,40,2012-11-24 01:20:00
1:50 AM,33.8,33.8,100,29.86,-9999.0,Variable,3.5,-,N/A,,Clear,0,2012-11-24 01:50:00
2:20 AM,32.0,32.0,100,29.86,-9999.0,ENE,4.6,-,N/A,,Clear,70,2012-11-24 02:20:00
2:50 AM,35.6,33.8,93,29.89,-9999.0,ENE,2.3,-,N/A,,Clear,60,2012-11-24 02:50:00
3:20 AM,33.8,32.0,93,29.89,6.2,Variable,2.3,-,N/A,,Partly Cloudy,0,2012-11-24 03:20:00
3:50 AM,32.0,32.0,100,29.89,6.2,East,5.8,-,N/A,,Unknown,80,2012-11-24 03:50:00
4:20 AM,33.8,32.0,93,29.89,6.2,NNE,4.6,-,N/A,,Unknown,30,2012-11-24 04:20:00
4:50 AM,32.0,32.0,100,29.89,-9999.0,Calm,Calm,-,N/A,,Clear,0,2012-11-24 04:50:00
5:20 AM,32.0,30.2,93,29.92,5.6,Variable,3.5,-,N/A,,Unknown,0,2012-11-24 05:20:00
5:50 AM,30.2,30.2,100,29.92,5.6,NE,5.8,-,N/A,,Unknown,50,2012-11-24 05:50:00
6:20 AM,32.0,32.0,100,29.92,5.0,NNE,4.6,-,N/A,,Unknown,30,2012-11-24 06:20:00
6:50 AM,33.8,32.0,93,29.92,6.2,Variable,3.5,-,N/A,,Partly Cloudy,0,2012-11-24 06:50:00
7:20 AM,32.0,30.2,93,29.92,6.2,NE,4.6,-,N/A,,Partly Cloudy,50,2012-11-24 07:20:00
7:50 AM,32.0,30.2,93,29.92,6.2,Variable,3.5,-,N/A,,Partly Cloudy,0,2012-11-24 07:50:00
8:20 AM,32.0,30.2,93,29.92,6.2,NNE,3.5,-,N/A,,Scattered Clouds,20,2012-11-24 08:20:00
8:50 AM,32.0,32.0,100,29.95,6.2,ENE,3.5,-,N/A,,Scattered Clouds,60,2012-11-24 08:50:00
9:20 AM,32.0,32.0,100,29.95,6.2,Variable,3.5,-,N/A,,Scattered Clouds,0,2012-11-24 09:20:00
9:50 AM,33.8,32.0,93,29.92,6.2,Variable,3.5,-,N/A,,Partly Cloudy,0,2012-11-24 09:50:00
10:20 AM,33.8,33.8,100,29.95,5.6,Variable,2.3,-,N/A,,Partly Cloudy,0,2012-11-24 10:20:00
10:50 AM,35.6,33.8,93,29.95,6.2,ENE,5.8,-,N/A,,Partly Cloudy,70,2012-11-24 10:50:00
11:20 AM,35.6,33.8,93,29.92,-9999.0,ENE,5.8,-,N/A,,Clear,70,2012-11-24 11:20:00
11:50 AM,37.4,33.8,87,29.92,-9999.0,ENE,4.6,-,N/A,,Clear,60,2012-11-24 11:50:00
12:20 PM,35.6,33.8,93,29.92,-9999.0,NE,4.6,-,N/A,,Clear,50,2012-11-24 12:20:00
12:50 PM,37.4,35.6,93,29.92,-9999.0,ENE,4.6,-,N/A,,Clear,70,2012-11-24 12:50:00
1:20 PM,37.4,35.6,93,29.92,-9999.0,ENE,5.8,-,N/A,,Clear,60,2012-11-24 13:20:00
1:50 PM,37.4,35.6,93,29.92,-9999.0,ENE,5.8,-,N/A,,Clear,60,2012-11-24 13:50:00
2:20 PM,37.4,35.6,93,29.89,-9999.0,NE,6.9,-,N/A,,Clear,50,2012-11-24 14:20:00
2:50 PM,37.4,35.6,93,29.89,-9999.0,ENE,5.8,-,N/A,,Clear,60,2012-11-24 14:50:00
3:20 PM,37.4,33.8,87,29.86,-9999.0,East,4.6,-,N/A,,Clear,90,2012-11-24 15:20:00
3:50 PM,35.6,33.8,93,29.86,6.2,ENE,5.8,-,N/A,,Partly Cloudy,60,2012-11-24 15:50:00
4:20 PM,35.6,33.8,93,29.86,6.2,ENE,6.9,-,N/A,,Partly Cloudy,60,2012-11-24 16:20:00
4:50 PM,37.4,33.8,87,29.83,6.2,ENE,6.9,-,N/A,,Partly Cloudy,60,2012-11-24 16:50:00
5:20 PM,37.4,33.8,87,29.83,5.6,ENE,6.9,-,N/A,,Light Drizzle,70,2012-11-24 17:20:00
5:50 PM,35.6,33.8,93,29.83,6.2,ENE,5.8,-,N/A,,Partly Cloudy,60,2012-11-24 17:50:00
6:20 PM,37.4,33.8,87,29.83,6.2,East,5.8,-,N/A,,Partly Cloudy,80,2012-11-24 18:20:00
6:50 PM,35.6,33.8,93,29.80,6.2,East,4.6,-,N/A,,Partly Cloudy,80,2012-11-24 18:50:00
7:20 PM,37.4,33.8,87,29.80,6.2,East,6.9,-,N/A,,Partly Cloudy,80,2012-11-24 19:20:00
7:50 PM,35.6,33.8,93,29.77,6.2,ENE,4.6,-,N/A,,Partly Cloudy,70,2012-11-24 19:50:00
8:20 PM,37.4,35.6,93,29.77,6.2,East,5.8,-,N/A,,Partly Cloudy,90,2012-11-24 20:20:00
8:50 PM,37.4,35.6,93,29.74,6.2,East,6.9,-,N/A,,Partly Cloudy,80,2012-11-24 20:50:00
9:20 PM,37.4,35.6,93,29.74,6.2,East,6.9,-,N/A,,Partly Cloudy,80,2012-11-24 21:20:00
9:50 PM,37.4,35.6,93,29.71,6.2,East,8.1,-,N/A,,Partly Cloudy,80,2012-11-24 21:50:00
10:20 PM,39.2,35.6,87,29.71,6.2,ENE,6.9,-,N/A,,Partly Cloudy,70,2012-11-24 22:20:00
10:50 PM,39.2,35.6,87,29.68,6.2,East,4.6,-,N/A,,Partly Cloudy,80,2012-11-24 22:50:00
11:20 PM,39.2,35.6,87,29.68,6.2,East,3.5,-,N/A,Rain,Light Rain,80,2012-11-24 23:20:00
11:50 PM,37.4,35.6,93,29.65,5.6,West,3.5,-,N/A,Rain,Light Rain,280,2012-11-24 23:50:00